Quillayute, WA

5:50 AM PST on December 11, 2017 (GMT -0800)
Quillayute

Weather History for KUIL - March, 2013

Change the Weather History Date:

Saturday, March 23, 2013

  Actual Average Record
Temperature  
Mean Temperature 43 °F 45 °F  
Max Temperature 51 °F 52 °F 65 °F (1979)
Min Temperature 35 °F 37 °F 28 °F (1994)
Degree Days  
Heating Degree Days 22 20  
Month to date heating degree days 478 488  
Since 1 July heating degree days 4171 4333  
Cooling Degree Days 0 0  
Month to date cooling degree days 0 0  
Year to date cooling degree days 0 0  
Moisture  
Dew Point 33 °F    
Average Humidity 66    
Maximum Humidity 82    
Minimum Humidity 50    
Precipitation  
Precipitation 0.00 in 0.34 in 3.52 in (2007)
Month to date precipitation 15.83 8.18  
Year to date precipitation 37.94 33.14  
Sea Level Pressure  
Sea Level Pressure 30.35 in    
Wind  
Wind Speed 5 mph (ESE)    
Max Wind Speed 13 mph    
Max Gust Speed 16 mph    
Visibility 8 miles    
Events      
T = Trace of Precipitation, MM = Missing Value Source: NWS Daily Summary

Daily Weather History Graph

Daily Weather History Graph

Search for Another Location

Airport or City:

Trip Planner

Search our weather history database for the weather conditions in past years. The results will help you decide how hot, cold, wet, or windy it might be!

Date:

Astronomy

Mar. 23, 2013 Rise Set
Actual Time 7:14 AM PDT 7:35 PM PDT
Civil Twilight 6:43 AM PDT 8:06 PM PDT
Nautical Twilight 6:06 AM PDT 8:43 PM PDT
Astronomical Twilight 5:28 AM PDT 9:21 PM PDT
Moon 3:55 PM PDT (3/23) 5:08 AM PDT (3/23)
Length of Visible Light 13h 23m
Length of Day
12h 21m
Waxing Gibbous, 86% of the Moon is Illuminated
Mar 23
Waxing Gibbous
Mar 27
Full
Apr 2
Last Quarter
Apr 10
New
Apr 18
First Quarter

Hourly Weather History & Observations

Time (PDT) Temp. Windchill Dew Point Humidity Pressure Visibility Wind Dir Wind Speed Gust Speed Precip Events Conditions
12:53 AM 35.1 °F 31.0 °F 30.0 °F 82% 30.38 in 8.0 mi East 4.6 mph - N/A   Clear
1:53 AM 35.1 °F 32.2 °F 30.0 °F 82% 30.39 in 8.0 mi East 3.5 mph - N/A   Clear
2:53 AM 35.1 °F 30.1 °F 30.9 °F 85% 30.38 in 8.0 mi East 5.8 mph - N/A   Clear
3:53 AM 36.0 °F 31.1 °F 30.9 °F 82% 30.38 in 8.0 mi East 5.8 mph - N/A   Clear
4:53 AM 36.0 °F 32.1 °F 30.9 °F 82% 30.37 in 9.0 mi East 4.6 mph - N/A   Scattered Clouds
5:53 AM 35.6 °F 32.8 °F 30.2 °F 81% 30.37 in 9.0 mi East 3.5 mph - N/A   Overcast
6:53 AM 36.0 °F 32.1 °F 30.9 °F 82% 30.38 in 9.0 mi East 4.6 mph - N/A   Overcast
7:53 AM 35.1 °F 32.2 °F 30.9 °F 85% 30.38 in 7.0 mi East 3.5 mph - N/A   Overcast
8:53 AM 37.0 °F 32.4 °F 32.0 °F 82% 30.38 in 7.0 mi East 5.8 mph - N/A   Overcast
9:53 AM 39.9 °F 37.8 °F 33.1 °F 77% 30.38 in 8.0 mi East 3.5 mph - N/A   Partly Cloudy
10:53 AM 46.0 °F - 35.1 °F 66% 30.37 in 8.0 mi Calm Calm - N/A   Overcast
11:53 AM 48.0 °F - 33.1 °F 56% 30.37 in 8.0 mi Variable 5.8 mph - N/A   Scattered Clouds
12:53 PM 48.9 °F - 33.1 °F 54% 30.35 in 8.0 mi SW 9.2 mph - N/A   Overcast
1:53 PM 50.0 °F - 34.0 °F 54% 30.35 in 8.0 mi SW 8.1 mph - N/A   Partly Cloudy
2:53 PM 50.0 °F - 34.0 °F 54% 30.34 in 8.0 mi SSW 6.9 mph - N/A   Clear
3:53 PM 48.0 °F - 30.9 °F 52% 30.34 in 8.0 mi SW 10.4 mph - N/A   Overcast
4:53 PM 48.0 °F - 32.0 °F 54% 30.34 in 8.0 mi SSW 8.1 mph - N/A   Overcast
5:53 PM 48.0 °F - 32.0 °F 54% 30.33 in 7.0 mi South 4.6 mph - N/A   Overcast
6:53 PM 45.0 °F - 33.1 °F 63% 30.32 in 7.0 mi Calm Calm - N/A   Overcast
7:53 PM 44.1 °F - 34.0 °F 68% 30.31 in 9.0 mi Calm Calm - N/A   Overcast
8:53 PM 43.0 °F - 34.0 °F 71% 30.31 in 8.0 mi Calm Calm - N/A   Overcast
9:53 PM 43.0 °F 40.3 °F 34.0 °F 71% 30.32 in 9.0 mi ENE 4.6 mph - N/A   Overcast
10:53 PM 41.0 °F 38.0 °F 36.0 °F 82% 30.30 in 7.0 mi East 4.6 mph - N/A   Overcast
11:53 PM 41.0 °F 38.0 °F 35.1 °F 79% 30.29 in 8.0 mi East 4.6 mph - N/A   Overcast